Погода в Болотне

Россия / Брянская область     53°18′21″N   32°54′02″E
темп.,
°C
ветер,
м/с
пор.,
м/с
влажн.,
%
обл.,
%
осадки,
мм/ч
давл.,
гПа
погр.,
м
8 мая, сб
сб800:00+9ю51389100 3.4 1007822
03:00+9ю3898100 3.6 1005559
06:00+9юз1499100 0.8 1005259
09:00+11сз3489100 1.6 1004478
12:00+10ссз4691100 1.8 1004586
15:00+6сз61093100 4.6 1006874
18:00+5ссз61389100 4.3 10081138
21:00+5сз71390100 7.4 1010911
9 мая, вс
вс900:00+4зсз51289100 0.3 1013734
03:00+2зсз4138856 0.3 1015483
06:00+1зсз413893 0.0 1018512
09:00+6сз59665 0.0 10201109
12:00+10сз684124 0.0 10212147
15:00+11сз683797 0.0 10222521
18:00+11сз464829 0.0 10242178
21:00+5зсз22752 0.0 102637
10 мая, пн
пн1000:00+4сз22732 0.0 102822
03:00+3с11705 0.0 102910
06:00+3юв11705 0.0 103010
09:00+11ю12495 0.0 1031429
12:00+14ююз21382 0.0 10301409
15:00+16ююз11365 0.0 10291608
18:00+15юз11420 0.0 10291374
21:00+9с11660 0.0 102910
11 мая, вт
вт1100:00+7в22710 0.0 103014
03:00+6в22775 0.0 103019
06:00+6всв24805 0.0 103075
09:00+13всв36532 0.0 1029570
12:00+16всв47395 0.0 10281180
15:00+18всв46369 0.0 10261351
18:00+17в37500 0.0 10261114
21:00+11в310780 0.0 1025214
12 мая, ср
ср1200:00+9всв388717 0.0 1025157
03:00+8св38941 0.0 1024161
06:00+9всв411836 0.0 1022394
09:00+9в3893100 0.4 1023398
12:00+12в478112 0.0 1022735
15:00+18вюв6104442 0.1 10202430
18:00+16вюв495833 0.1 10201585
21:00+11в268327 0.2 1020128